FW7254 Weather Reports


Display with metric or nautical units.
time (UTC)temp
F
wind
direction
speed
MPH
gust
MPH
rain 1hr
in
rain 24hr
in
rain mn
in
humidity
%
barometer
mb
20260903220321 75 21 0.0 0.0 0.00 0.00 0.00 87 1011.0
20260903214830 75 21 0.0 0.0 0.00 0.00 0.00 87 1010.9
20260903213327 75 21 0.0 0.0 0.00 0.00 0.00 87 1011.0
20260903211816 75 21 0.0 0.0 0.00 0.00 0.00 87 1010.4
20260903210320 75 22 0.0 0.0 0.00 0.00 0.00 87 1010.0
20260903204827 75 22 0.0 0.0 0.00 0.00 0.00 87 1010.0
20260903203331 75 21 0.0 0.0 0.00 0.00 0.00 87 1009.6
20260903201818 75 21 0.0 0.0 0.00 0.00 0.00 86 1009.7
20260903200325 75 21 0.0 0.0 0.00 0.00 0.00 86 1009.5
20260903194829 75 22 0.0 0.0 0.00 0.00 0.00 86 1009.2
20260903193332 75 22 0.0 0.0 0.00 0.00 0.00 85 1009.0
20260903191834 75 22 0.0 0.0 0.00 0.00 0.00 85 1009.1
20260903190312 75 22 0.0 0.0 0.00 0.00 0.00 85 1008.8
20260903184825 76 22 0.0 0.0 0.00 0.00 0.00 85 1008.2
20260903183329 76 22 0.0 0.0 0.00 0.00 0.00 85 1008.4
20260903181836 76 22 0.0 0.0 0.00 0.00 0.00 85 1008.6
20260903180315 76 22 0.0 0.0 0.00 0.00 0.00 85 1008.5
20260903174822 76 22 0.0 0.0 0.00 0.00 0.00 84 1008.3
20260903173347 76 21 0.0 0.0 0.00 0.00 0.00 83 1008.1
20260903171814 76 21 0.0 0.0 0.00 0.00 0.00 83 1008.2
20260903170318 77 22 0.0 0.0 0.00 0.00 0.00 82 1008.1
20260903164825 77 22 0.0 0.0 0.00 0.00 0.00 80 1008.1
20260903163329 77 22 0.0 0.0 0.00 0.00 0.00 79 1008.3
20260903161837 77 21 0.0 0.0 0.00 0.00 0.00 78 1008.2
20260903160325 78 21 0.0 0.0 0.00 0.00 0.00 78 1008.2
20260903154830 78 21 0.0 0.0 0.00 0.00 0.00 77 1008.4
20260903153336 78 22 0.0 0.0 0.00 0.00 0.00 76 1008.3
20260903151817 78 22 0.0 0.0 0.00 0.00 0.00 76 1008.3
20260903150321 77 22 0.0 0.0 0.00 0.00 0.00 76 1008.0
20260903144825 77 21 0.0 0.0 0.00 0.00 0.00 75 1007.9
20260903143328 77 22 0.0 0.0 0.00 0.00 0.00 75 1008.0
20260903141835 77 22 0.0 0.0 0.00 0.00 0.00 76 1008.3
20260903140314 77 22 0.0 0.0 0.00 0.00 0.00 76 1008.4
20260903134822 77 22 0.0 0.0 0.00 0.00 0.00 77 1008.3
20260903133329 77 22 0.0 0.0 0.00 0.00 0.00 76 1008.5
20260903131836 77 22 0.0 0.0 0.00 0.00 0.00 77 1008.9
20260903130318 77 22 0.0 0.0 0.00 0.00 0.00 77 1009.5
20260903124823 77 22 0.0 0.0 0.00 0.00 0.00 76 1009.9
20260903123347 77 21 0.0 0.0 0.00 0.00 0.00 76 1010.0
20260903121819 77 22 0.0 0.0 0.00 0.00 0.00 76 1010.2
20260903120323 77 22 0.0 0.0 0.00 0.00 0.00 76 1010.5
20260903114823 77 21 0.0 0.0 0.00 0.00 0.00 75 1010.6
20260903113354 77 22 0.0 0.0 0.00 0.00 0.00 75 1010.5
20260903111814 77 22 0.0 0.0 0.00 0.00 0.00 75 1010.4
20260903110316 77 21 0.0 0.0 0.00 0.00 0.00 75 1010.3
20260903104822 77 21 0.0 0.0 0.00 0.00 0.00 75 1010.1
20260903103349 77 22 0.0 0.0 0.00 0.00 0.00 75 1010.1
20260903101815 77 22 0.0 0.0 0.00 0.00 0.00 75 1009.7
20260903100319 78 22 0.0 0.0 0.00 0.00 0.00 75 1009.5
20260903094825 78 22 0.0 0.0 0.00 0.00 0.00 74 1009.4
20260903093329 78 22 0.0 0.0 0.00 0.00 0.00 74 1009.4
20260903091836 78 22 0.0 0.0 0.00 0.00 0.00 73 1009.5
20260903090315 78 22 0.0 0.0 0.00 0.00 0.00 73 1009.4
20260903084822 78 22 0.0 0.0 0.00 0.00 0.00 73 1009.8
20260903083311 78 22 0.0 0.0 0.00 0.00 0.00 72 1009.8
20260903081837 79 22 1.0 0.0 0.00 0.00 0.00 71 1010.3
20260903080341 79 22 0.0 0.0 0.00 0.00 0.00 71 1010.9
20260903074828 79 22 1.0 0.0 0.00 0.00 0.00 72 1010.0
20260903073325 79 22 0.0 0.0 0.00 0.00 0.00 72 1009.5
20260903071832 80 22 2.0 0.0 0.00 0.00 0.00 72 1010.6
20260903070318 80 24 3.0 0.0 0.00 0.00 0.00 71 1010.4
20260903064817 83 32 3.0 0.0 0.00 0.00 0.00 70 1010.6
20260903063323 84 58 1.0 0.0 0.00 0.00 0.00 75 1010.4
20260903061850 85 57 0.0 0.0 0.00 0.00 0.00 76 1010.1
20260903060313 85 58 0.0 0.0 0.00 0.00 0.00 76 1008.6
20260903054819 86 58 0.0 0.0 0.00 0.00 0.00 75 1009.2
20260903053322 86 57 0.0 0.0 0.00 0.00 0.00 74 1009.0
20260903051829 86 58 0.0 0.0 0.00 0.00 0.00 73 1009.2
20260903050330 87 57 0.0 0.0 0.00 0.00 0.00 72 1009.3
20260903044836 87 57 0.0 0.0 0.00 0.00 0.00 71 1008.9
20260903043319 88 58 0.0 0.0 0.00 0.00 0.00 70 1008.8
20260903041827 87 58 0.0 0.0 0.00 0.00 0.00 71 1009.3
20260903040328 87 58 0.0 0.0 0.00 0.00 0.00 72 1009.0
20260903034814 86 58 0.0 0.0 0.00 0.00 0.00 72 1009.2
20260903033320 86 58 0.0 0.0 0.00 0.00 0.00 73 1009.1
20260903031842 86 58 0.0 0.0 0.00 0.00 0.00 73 1009.4
20260903030327 86 58 0.0 0.0 0.00 0.00 0.00 72 1009.4
20260903024835 86 58 0.0 0.0 0.00 0.00 0.00 73 1009.5
20260903023331 85 58 0.0 0.0 0.00 0.00 0.00 73 1009.6
20260903021822 85 58 0.0 0.0 0.00 0.00 0.00 74 1009.4
20260903020415 85 58 0.0 0.0 0.00 0.00 0.00 75 1009.5
20260903020332 85 58 0.0 0.0 0.00 0.00 0.00 75 1009.5
20260903014838 84 58 0.0 0.0 0.00 0.00 0.00 75 1009.6
20260903013316 84 58 0.0 0.0 0.00 0.00 0.00 76 1009.7
20260903011823 84 58 0.0 0.0 0.00 0.00 0.00 77 1009.6
20260903010328 83 57 0.0 0.0 0.00 0.00 0.00 78 1009.6
20260903004835 83 57 0.0 0.0 0.00 0.00 0.00 79 1009.7
20260903003317 83 58 0.0 0.0 0.00 0.00 0.00 80 1009.8
20260903001825 83 58 0.0 0.0 0.00 0.00 0.00 81 1009.7
20260903000328 82 58 0.0 0.0 0.00 0.00 0.00 83 1009.8
20260902234834 82 58 0.0 0.0 0.00 0.00 0.00 83 1009.8
20260902233340 82 58 0.0 0.0 0.00 0.00 0.00 83 1010.0
20260902231824 81 57 0.0 0.0 0.00 0.00 0.00 84 1010.0
20260902230328 80 58 0.0 0.0 0.00 0.00 0.00 84 1010.2
20260902224831 80 57 0.0 0.0 0.00 0.00 0.00 85 1010.1
20260902223314 80 58 0.0 0.0 0.00 0.00 0.00 86 1010.0
20260902221821 79 58 0.0 0.0 0.00 0.00 0.00 86 1009.9